Location: Waco, TX
(31.5480°N, 97.1670°W)
Time: 19:03:40
(UTC-06:00)

Tiangong 1 - Visible Passes

Search period start: 19 January 2018 00:00
Search period end: 29 January 2018 00:00
Orbit: 263 x 287 km, 42.8° (Epoch: 19 January)

Date Brightness Start Highest point End Pass type
(mag) Time Alt. Az. Time Alt. Az. Time Alt. Az.
22 Jan 2.7 18:29:01 10° NNW 18:30:24 14° NNE 18:31:35 11° NE visible
23 Jan 2.0 18:27:50 10° NNW 18:29:48 20° NNE 18:31:26 12° ENE visible
24 Jan 1.1 18:26:41 10° NW 18:29:01 36° NNE 18:31:18 10° E visible
25 Jan 0.3 18:25:34 10° WNW 18:28:02 81° NNE 18:30:27 10° ESE visible
26 Jan 1.8 18:24:31 10° WNW 18:26:52 40° SW 18:29:10 10° SE visible
27 Jan 3.5 18:23:42 10° W 18:25:31 18° SW 18:27:18 10° S visible
